EWG17V EDDL-LIRQ

Flight info

Callsign EWG17V
Flight time 1h 24m
Altitude 37000
Route DODEN7Z DODEN Y852 NATOR DCT TRA DCT RIPUS DCT GERSA DCT SOSON DCT ODINA DCT SRN DCT ROBAS DCT OSBUL L153 BEROK
Aircraft A320/M-SDE3FGHIRWY/LB1

Departure

Time 2026-05-08 09:36
Airport Düsseldorf Airport (EDDL)

Arrival

Time 2026-05-08 11:01
Airport Florence Airport, Peretola (LIRQ)
Time Latitude Longitude Altitude Speed Heading
2026-05-08 09:01 51.28411 6.77245 124 ft 0 kts 142°
2026-05-08 09:28 51.28423 6.77230 124 ft 3 kts 142°
2026-05-08 09:28 51.28439 6.77210 125 ft 3 kts 151°
2026-05-08 09:28 51.28461 6.77203 125 ft 3 kts 201°
2026-05-08 09:29 51.28481 6.77223 125 ft 4 kts 226°
2026-05-08 09:29 51.28489 6.77236 127 ft 0 kts 233°
2026-05-08 09:31 51.28487 6.77232 126 ft 2 kts 232°
2026-05-08 09:31 51.28469 6.77194 125 ft 7 kts 232°
2026-05-08 09:32 51.28432 6.77119 129 ft 10 kts 232°
2026-05-08 09:32 51.28385 6.77020 129 ft 11 kts 233°
2026-05-08 09:32 51.28353 6.76917 127 ft 11 kts 271°
2026-05-08 09:32 51.28409 6.76821 125 ft 12 kts 323°
2026-05-08 09:33 51.28455 6.76719 126 ft 11 kts 259°
2026-05-08 09:33 51.28404 6.76599 124 ft 15 kts 232°
2026-05-08 09:33 51.28338 6.76461 121 ft 17 kts 232°
2026-05-08 09:33 51.28265 6.76308 126 ft 18 kts 233°
2026-05-08 09:34 51.28187 6.76144 126 ft 19 kts 232°
2026-05-08 09:34 51.28103 6.75967 127 ft 21 kts 233°
2026-05-08 09:34 51.28009 6.75769 128 ft 24 kts 233°
2026-05-08 09:34 51.27943 6.75611 129 ft 10 kts 260°
2026-05-08 09:35 51.27986 6.75532 128 ft 8 kts 333°
2026-05-08 09:35 51.28048 6.75493 124 ft 12 kts 342°
2026-05-08 09:35 51.28103 6.75495 123 ft 5 kts 44°
2026-05-08 09:35 51.28117 6.75525 125 ft 14 kts 53°
2026-05-08 09:36 51.28305 6.75922 127 ft 75 kts 52°
2026-05-08 09:36 51.28741 6.76834 129 ft 130 kts 53°
2026-05-08 09:36 51.29338 6.78104 399 ft 151 kts 53°
2026-05-08 09:36 51.29986 6.79493 948 ft 160 kts 54°
2026-05-08 09:37 51.30662 6.80930 1568 ft 166 kts 53°
2026-05-08 09:37 51.31407 6.82496 1936 ft 188 kts 53°
2026-05-08 09:37 51.32247 6.84259 2295 ft 211 kts 53°
2026-05-08 09:37 51.33171 6.86216 2742 ft 233 kts 55°
2026-05-08 09:38 51.33761 6.88737 3276 ft 255 kts 86°
2026-05-08 09:38 51.33383 6.91525 4167 ft 264 kts 120°
2026-05-08 09:38 51.32115 6.93581 5137 ft 268 kts 147°
2026-05-08 09:38 51.30528 6.95163 6182 ft 270 kts 149°
2026-05-08 09:39 51.28911 6.96731 7159 ft 274 kts 149°
2026-05-08 09:39 51.27274 6.98310 8115 ft 277 kts 149°
2026-05-08 09:39 51.25615 6.99915 9058 ft 280 kts 149°
2026-05-08 09:39 51.23936 7.01549 9987 ft 284 kts 149°
2026-05-08 09:40 51.22204 7.03240 10473 ft 303 kts 149°
2026-05-08 09:40 51.20361 7.05044 10744 ft 326 kts 149°
2026-05-08 09:40 51.18366 7.06994 11067 ft 345 kts 149°
2026-05-08 09:40 51.16299 7.09015 11700 ft 352 kts 149°
2026-05-08 09:41 51.14195 7.11076 12412 ft 357 kts 149°
2026-05-08 09:41 51.12070 7.13152 13130 ft 361 kts 149°
2026-05-08 09:41 51.09918 7.15248 13844 ft 365 kts 149°
2026-05-08 09:41 51.07740 7.17362 14475 ft 369 kts 149°
2026-05-08 09:42 51.05539 7.19494 15099 ft 373 kts 150°
2026-05-08 09:42 51.03310 7.21649 15719 ft 377 kts 150°
2026-05-08 09:42 51.01056 7.23826 16346 ft 381 kts 150°
2026-05-08 09:42 50.98811 7.25996 16958 ft 385 kts 150°
2026-05-08 09:43 50.96510 7.28222 17578 ft 389 kts 150°
2026-05-08 09:43 50.94185 7.30475 18216 ft 394 kts 150°
2026-05-08 09:43 50.91835 7.32749 18788 ft 398 kts 150°
2026-05-08 09:43 50.89465 7.35037 19365 ft 401 kts 150°
2026-05-08 09:44 50.87071 7.37342 19947 ft 404 kts 150°
2026-05-08 09:44 50.84660 7.39660 20526 ft 407 kts 150°
2026-05-08 09:44 50.82237 7.41986 21081 ft 410 kts 150°
2026-05-08 09:44 50.79817 7.44308 21612 ft 413 kts 150°
2026-05-08 09:45 50.77353 7.46664 22130 ft 416 kts 150°
2026-05-08 09:45 50.74868 7.49036 22640 ft 419 kts 150°
2026-05-08 09:45 50.72370 7.51424 23136 ft 421 kts 150°
2026-05-08 09:45 50.69854 7.53828 23632 ft 424 kts 150°
2026-05-08 09:46 50.67321 7.56241 24044 ft 427 kts 150°
2026-05-08 09:46 50.64772 7.58668 24468 ft 429 kts 150°
2026-05-08 09:46 50.62210 7.61104 24882 ft 431 kts 150°
2026-05-08 09:46 50.59635 7.63550 25296 ft 434 kts 151°
2026-05-08 09:47 50.57082 7.65974 25710 ft 436 kts 151°
2026-05-08 09:47 50.54478 7.68446 26124 ft 438 kts 151°
2026-05-08 09:47 50.51860 7.70927 26529 ft 440 kts 151°
2026-05-08 09:47 50.49228 7.73411 26925 ft 443 kts 151°
2026-05-08 09:48 50.46581 7.75903 27313 ft 445 kts 151°
2026-05-08 09:48 50.43921 7.78405 27695 ft 447 kts 151°
2026-05-08 09:48 50.41250 7.80916 28056 ft 449 kts 151°
2026-05-08 09:48 50.38596 7.83407 28416 ft 451 kts 151°
2026-05-08 09:49 50.35899 7.85938 28778 ft 453 kts 151°
2026-05-08 09:49 50.33184 7.88481 29128 ft 455 kts 151°
2026-05-08 09:49 50.30461 7.91027 29461 ft 458 kts 151°
2026-05-08 09:49 50.27720 7.93585 29801 ft 460 kts 151°
2026-05-08 09:50 50.24972 7.96148 30214 ft 460 kts 151°
2026-05-08 09:50 50.22231 7.98704 30616 ft 459 kts 152°
2026-05-08 09:50 50.19492 8.01253 31019 ft 458 kts 152°
2026-05-08 09:50 50.16757 8.03792 31409 ft 457 kts 152°
2026-05-08 09:51 50.14062 8.06293 31800 ft 456 kts 152°
2026-05-08 09:51 50.11338 8.08823 32212 ft 455 kts 152°
2026-05-08 09:51 50.08619 8.11348 32634 ft 455 kts 152°
2026-05-08 09:51 50.05903 8.13858 33064 ft 453 kts 152°
2026-05-08 09:52 50.03196 8.16357 33487 ft 452 kts 152°
2026-05-08 09:52 50.00491 8.18851 33907 ft 452 kts 152°
2026-05-08 09:52 49.97792 8.21334 34296 ft 451 kts 152°
2026-05-08 09:52 49.95093 8.23812 34629 ft 451 kts 152°
2026-05-08 09:53 49.92393 8.26290 34951 ft 451 kts 152°
2026-05-08 09:53 49.89694 8.28765 35269 ft 451 kts 153°
2026-05-08 09:53 49.87025 8.31204 35574 ft 451 kts 153°
2026-05-08 09:53 49.84324 8.33674 35875 ft 452 kts 153°
2026-05-08 09:54 49.81613 8.36151 36155 ft 452 kts 153°
2026-05-08 09:54 49.78903 8.38619 36429 ft 453 kts 153°
2026-05-08 09:54 49.76191 8.41087 36701 ft 453 kts 153°
2026-05-08 09:54 49.73470 8.43565 36938 ft 454 kts 153°
2026-05-08 09:55 49.70750 8.46045 36991 ft 453 kts 153°
2026-05-08 09:55 49.65369 8.50937 37008 ft 452 kts 153°
2026-05-08 09:56 49.59951 8.55837 37011 ft 451 kts 153°
2026-05-08 09:56 49.54527 8.60720 37008 ft 451 kts 153°
2026-05-08 09:57 49.46364 8.67946 37008 ft 450 kts 158°
2026-05-08 09:57 49.40611 8.71649 37004 ft 448 kts 161°
2026-05-08 09:58 49.34883 8.75252 36994 ft 448 kts 161°
2026-05-08 09:58 49.29119 8.78863 36989 ft 448 kts 161°
2026-05-08 09:59 49.23349 8.82465 36978 ft 448 kts 161°
2026-05-08 09:59 49.17583 8.86072 36975 ft 447 kts 161°
2026-05-08 10:00 49.11861 8.89638 36973 ft 447 kts 161°
2026-05-08 10:00 49.06094 8.93207 36971 ft 447 kts 161°
2026-05-08 10:01 49.00330 8.96774 36964 ft 447 kts 161°
2026-05-08 10:01 48.94566 9.00342 36957 ft 447 kts 161°
2026-05-08 10:02 48.88837 9.03876 36954 ft 448 kts 161°
2026-05-08 10:02 48.83054 9.07426 36958 ft 448 kts 161°
2026-05-08 10:03 48.77279 9.10966 36966 ft 447 kts 161°
2026-05-08 10:03 48.71510 9.14496 36961 ft 447 kts 161°
2026-05-08 10:04 48.65779 9.17986 36953 ft 447 kts 161°
2026-05-08 10:04 48.60014 9.21498 36954 ft 447 kts 161°
2026-05-08 10:05 48.54254 9.24999 36948 ft 446 kts 161°
2026-05-08 10:05 48.48488 9.28485 36946 ft 446 kts 161°
2026-05-08 10:06 48.42756 9.31944 36946 ft 446 kts 161°
2026-05-08 10:06 48.36989 9.35414 36939 ft 446 kts 161°
2026-05-08 10:07 48.31223 9.38894 36938 ft 447 kts 161°
2026-05-08 10:07 48.25455 9.42363 36936 ft 447 kts 161°
2026-05-08 10:08 48.19679 9.45824 36940 ft 447 kts 161°
2026-05-08 10:08 48.13939 9.49239 36939 ft 447 kts 161°
2026-05-08 10:09 48.08160 9.52673 36939 ft 447 kts 161°
2026-05-08 10:09 48.02584 9.56069 36933 ft 449 kts 157°
2026-05-08 10:10 47.98167 9.60205 36932 ft 453 kts 148°
2026-05-08 10:10 47.92137 9.66397 36923 ft 453 kts 149°
2026-05-08 10:11 47.86941 9.71691 36929 ft 453 kts 149°
2026-05-08 10:11 47.81740 9.76980 36928 ft 453 kts 149°
2026-05-08 10:12 47.77419 9.81366 36932 ft 452 kts 149°
2026-05-08 10:12 47.72218 9.86638 36928 ft 452 kts 149°
2026-05-08 10:13 47.66173 9.92736 36928 ft 452 kts 149°
2026-05-08 10:13 47.61848 9.97086 36931 ft 452 kts 150°
2026-05-08 10:14 47.56653 10.02320 36929 ft 452 kts 150°
2026-05-08 10:14 47.51453 10.07539 37015 ft 451 kts 150°
2026-05-08 10:15 47.46251 10.12739 37053 ft 451 kts 150°
2026-05-08 10:15 47.41150 10.17833 37054 ft 451 kts 150°
2026-05-08 10:16 47.35951 10.23005 37056 ft 450 kts 150°
2026-05-08 10:16 47.30756 10.28166 37058 ft 450 kts 150°
2026-05-08 10:17 47.25562 10.33310 37054 ft 450 kts 150°
2026-05-08 10:17 47.20364 10.38449 37052 ft 450 kts 150°
2026-05-08 10:18 47.15163 10.43584 37057 ft 451 kts 150°
2026-05-08 10:18 47.09963 10.48708 37049 ft 449 kts 150°
2026-05-08 10:19 47.04625 10.53257 37061 ft 443 kts 162°
2026-05-08 10:20 46.95875 10.57304 37070 ft 440 kts 167°
2026-05-08 10:20 46.90029 10.59940 37064 ft 439 kts 167°
2026-05-08 10:21 46.84188 10.62583 37072 ft 439 kts 167°
2026-05-08 10:21 46.78388 10.65204 37075 ft 440 kts 167°
2026-05-08 10:22 46.72540 10.67831 37086 ft 440 kts 168°
2026-05-08 10:22 46.66629 10.70040 37090 ft 436 kts 172°
2026-05-08 10:23 46.60698 10.71839 37080 ft 436 kts 173°
2026-05-08 10:23 46.54757 10.73649 37086 ft 437 kts 172°
2026-05-08 10:24 46.48817 10.75573 37108 ft 437 kts 172°
2026-05-08 10:24 46.42920 10.77512 37125 ft 437 kts 172°
2026-05-08 10:25 46.36991 10.79440 37132 ft 436 kts 172°
2026-05-08 10:25 46.31063 10.81355 37136 ft 436 kts 172°
2026-05-08 10:26 46.25141 10.83277 37139 ft 436 kts 172°
2026-05-08 10:26 46.19219 10.85189 37136 ft 436 kts 172°
2026-05-08 10:27 46.13307 10.87084 37140 ft 436 kts 172°
2026-05-08 10:27 46.07378 10.88982 37131 ft 437 kts 172°
2026-05-08 10:28 46.01485 10.90870 37126 ft 437 kts 172°
2026-05-08 10:28 45.95551 10.92761 37113 ft 437 kts 172°
2026-05-08 10:29 45.89615 10.94656 37114 ft 437 kts 172°
2026-05-08 10:29 45.83681 10.96545 37093 ft 437 kts 172°
2026-05-08 10:30 45.77795 10.98412 37101 ft 437 kts 172°
2026-05-08 10:30 45.71869 11.00291 37083 ft 436 kts 172°
2026-05-08 10:31 45.65938 11.02160 37082 ft 436 kts 172°
2026-05-08 10:31 45.59995 11.03872 37074 ft 435 kts 175°
2026-05-08 10:32 45.54073 11.05248 37083 ft 434 kts 176°
2026-05-08 10:32 45.48105 11.06598 37076 ft 434 kts 175°
2026-05-08 10:33 45.42145 11.08010 37079 ft 434 kts 175°
2026-05-08 10:33 45.36185 11.09462 37071 ft 434 kts 175°
2026-05-08 10:34 45.30226 11.10914 37051 ft 434 kts 175°
2026-05-08 10:34 45.24310 11.12333 37049 ft 434 kts 175°
2026-05-08 10:35 45.18351 11.13758 37047 ft 434 kts 175°
2026-05-08 10:35 45.12396 11.15187 37045 ft 434 kts 175°
2026-05-08 10:36 45.06451 11.16605 37056 ft 434 kts 175°
2026-05-08 10:36 45.00486 11.18021 37062 ft 434 kts 175°
2026-05-08 10:37 44.94566 11.19420 37072 ft 434 kts 175°
2026-05-08 10:37 44.88610 11.20832 37084 ft 434 kts 175°
2026-05-08 10:38 44.82643 11.22250 37088 ft 434 kts 176°
2026-05-08 10:38 44.76681 11.23658 37077 ft 434 kts 176°
2026-05-08 10:39 44.70759 11.25059 37071 ft 435 kts 176°
2026-05-08 10:39 44.64754 11.26485 37061 ft 435 kts 176°
2026-05-08 10:40 44.58791 11.27879 37053 ft 434 kts 176°
2026-05-08 10:40 44.52868 11.29241 37041 ft 434 kts 177°
2026-05-08 10:41 44.46869 11.30219 36204 ft 438 kts 180°
2026-05-08 10:41 44.43817 11.30581 35490 ft 442 kts 181°
2026-05-08 10:41 44.40747 11.30928 34776 ft 443 kts 182°
2026-05-08 10:41 44.37672 11.31294 34051 ft 443 kts 181°
2026-05-08 10:42 44.34614 11.31687 33316 ft 441 kts 180°
2026-05-08 10:42 44.31556 11.32104 32403 ft 443 kts 180°
2026-05-08 10:42 44.28524 11.32534 31501 ft 445 kts 180°
2026-05-08 10:42 44.25435 11.32975 30553 ft 447 kts 179°
2026-05-08 10:43 44.22330 11.33413 29463 ft 449 kts 179°
2026-05-08 10:43 44.19231 11.33849 27846 ft 448 kts 179°
2026-05-08 10:43 44.16110 11.34284 26207 ft 450 kts 179°
2026-05-08 10:43 44.13008 11.34716 24778 ft 446 kts 179°
2026-05-08 10:44 44.09941 11.35140 23469 ft 440 kts 179°
2026-05-08 10:44 44.06939 11.35554 22571 ft 424 kts 179°
2026-05-08 10:44 44.04075 11.35957 21964 ft 404 kts 179°
2026-05-08 10:44 44.01330 11.36342 21298 ft 389 kts 179°
2026-05-08 10:45 43.98675 11.36710 20718 ft 376 kts 179°
2026-05-08 10:45 43.96188 11.37055 20566 ft 352 kts 179°
2026-05-08 10:45 43.93813 11.37386 20293 ft 337 kts 179°
2026-05-08 10:45 43.91506 11.37697 20040 ft 329 kts 179°
2026-05-08 10:46 43.89242 11.38000 19792 ft 325 kts 179°
2026-05-08 10:46 43.86997 11.38301 19546 ft 324 kts 179°
2026-05-08 10:46 43.84761 11.38498 19303 ft 320 kts 186°
2026-05-08 10:46 43.82582 11.38082 19057 ft 313 kts 198°
2026-05-08 10:47 43.80557 11.37038 18817 ft 309 kts 210°
2026-05-08 10:47 43.78719 11.35525 18578 ft 307 kts 214°
2026-05-08 10:47 43.76919 11.33981 18067 ft 310 kts 214°
2026-05-08 10:47 43.75198 11.32185 17554 ft 309 kts 225°
2026-05-08 10:48 43.73733 11.30015 17025 ft 310 kts 230°
2026-05-08 10:48 43.72315 11.27819 16764 ft 302 kts 230°
2026-05-08 10:48 43.70922 11.25659 16352 ft 300 kts 230°
2026-05-08 10:48 43.69536 11.23508 15927 ft 299 kts 230°
2026-05-08 10:49 43.68132 11.21334 15261 ft 306 kts 230°
2026-05-08 10:49 43.66727 11.19163 15043 ft 298 kts 230°
2026-05-08 10:49 43.65364 11.17066 14901 ft 289 kts 230°
2026-05-08 10:49 43.64041 11.15036 14752 ft 280 kts 229°
2026-05-08 10:50 43.62723 11.13023 14270 ft 285 kts 229°
2026-05-08 10:50 43.61382 11.10981 13829 ft 288 kts 229°
2026-05-08 10:50 43.60029 11.08924 13357 ft 290 kts 229°
2026-05-08 10:50 43.58674 11.06857 12917 ft 291 kts 229°
2026-05-08 10:51 43.57338 11.04813 12484 ft 291 kts 229°
2026-05-08 10:51 43.55989 11.02736 12050 ft 292 kts 230°
2026-05-08 10:51 43.54633 11.00647 11612 ft 292 kts 230°
2026-05-08 10:51 43.53281 10.98564 11176 ft 292 kts 229°
2026-05-08 10:52 43.51935 10.96498 10970 ft 284 kts 230°
2026-05-08 10:52 43.50650 10.94530 10974 ft 269 kts 229°
2026-05-08 10:52 43.49460 10.92630 10975 ft 254 kts 237°
2026-05-08 10:52 43.48902 10.90409 10726 ft 249 kts 268°
2026-05-08 10:53 43.49367 10.88103 10076 ft 266 kts 303°
2026-05-08 10:53 43.50686 10.86209 9341 ft 282 kts 316°
2026-05-08 10:53 43.52184 10.84365 8528 ft 296 kts 317°
2026-05-08 10:53 43.53917 10.82750 7713 ft 310 kts 338°
2026-05-08 10:54 43.56086 10.82458 6971 ft 322 kts
2026-05-08 10:54 43.58111 10.83739 6486 ft 324 kts 37°
2026-05-08 10:54 43.59681 10.85915 6027 ft 314 kts 51°
2026-05-08 10:54 43.60913 10.88258 5950 ft 290 kts 55°
2026-05-08 10:55 43.62020 10.90481 5702 ft 276 kts 54°
2026-05-08 10:55 43.63116 10.92606 5270 ft 270 kts 54°
2026-05-08 10:55 43.64221 10.94673 4874 ft 264 kts 49°
2026-05-08 10:55 43.65415 10.96557 4513 ft 257 kts 46°
2026-05-08 10:56 43.66585 10.98328 4176 ft 249 kts 46°
2026-05-08 10:56 43.67730 11.00074 3851 ft 241 kts 47°
2026-05-08 10:56 43.68833 11.01767 3537 ft 233 kts 46°
2026-05-08 10:56 43.69894 11.03397 3237 ft 224 kts 47°
2026-05-08 10:57 43.70914 11.04963 2978 ft 213 kts 47°
2026-05-08 10:57 43.71870 11.06433 2663 ft 199 kts 47°
2026-05-08 10:57 43.73570 11.09046 2174 ft 168 kts 46°
2026-05-08 10:58 43.74311 11.10192 2046 ft 153 kts 45°
2026-05-08 10:58 43.74990 11.11259 1914 ft 145 kts 47°
2026-05-08 10:58 43.75650 11.12292 1723 ft 141 kts 44°
2026-05-08 10:58 43.76299 11.13270 1497 ft 137 kts 46°
2026-05-08 10:59 43.76938 11.14212 1302 ft 132 kts 47°
2026-05-08 10:59 43.77541 11.15139 1145 ft 128 kts 47°
2026-05-08 10:59 43.78127 11.16031 1001 ft 123 kts 50°
2026-05-08 10:59 43.78696 11.16924 798 ft 123 kts 49°
2026-05-08 11:00 43.79250 11.17815 599 ft 123 kts 50°
2026-05-08 11:00 43.79831 11.18684 409 ft 124 kts 48°
2026-05-08 11:00 43.80398 11.19563 227 ft 122 kts 48°
2026-05-08 11:00 43.80939 11.20407 128 ft 106 kts 48°
2026-05-08 11:01 43.81243 11.20876 132 ft 38 kts 48°
2026-05-08 11:01 43.81410 11.21136 133 ft 37 kts 48°
2026-05-08 11:01 43.81513 11.21286 133 ft 11 kts 32°
2026-05-08 11:01 43.81519 11.21328 137 ft 6 kts 148°
2026-05-08 11:02 43.81470 11.21244 132 ft 17 kts 242°
2026-05-08 11:02 43.81301 11.20969 133 ft 21 kts 228°
2026-05-08 11:02 43.81199 11.20811 127 ft 24 kts 228°
2026-05-08 11:03 43.81082 11.20631 127 ft 26 kts 228°
2026-05-08 11:03 43.80962 11.20446 126 ft 26 kts 228°
2026-05-08 11:03 43.80848 11.20270 130 ft 24 kts 229°
2026-05-08 11:03 43.80764 11.20140 133 ft 17 kts 228°
2026-05-08 11:04 43.80679 11.20033 132 ft 13 kts 201°
2026-05-08 11:04 43.80585 11.20003 132 ft 14 kts 192°
2026-05-08 11:04 43.80505 11.19976 133 ft 12 kts 194°
2026-05-08 11:04 43.80437 11.19954 132 ft 9 kts 193°
2026-05-08 11:05 43.80419 11.19950 132 ft 2 kts 180°
2026-05-08 11:05 43.80399 11.19966 132 ft 6 kts 146°
2026-05-08 11:05 43.80347 11.20005 126 ft 8 kts 158°
2026-05-08 11:05 43.80310 11.20024 127 ft 5 kts 159°
2026-05-08 11:06 43.80297 11.20031 126 ft 1 kts 159°